owner,sensor,date,latitude,longitude,vertical_datum,wind_speed,wind_to_direction,wind_speed_of_gust,qcFlag 
COMPS,ioos:station:USF.COMPS:FHP:1,2016-11-01T00:00:00Z,28.1530,-82.8010,10.0,3.62,85.01,4.8,'1111122,1111122,1111122' 
COMPS,ioos:station:USF.COMPS:FHP:1,2016-11-01T00:06:00Z,28.1530,-82.8010,10.0,3.81,87.13,5.19,'1111122,1111122,1111122' 
COMPS,ioos:station:USF.COMPS:FHP:1,2016-11-01T00:12:00Z,28.1530,-82.8010,10.0,3.62,83.41,4.6,'1111122,1111122,1111122' 
COMPS,ioos:station:USF.COMPS:FHP:1,2016-11-01T00:18:00Z,28.1530,-82.8010,10.0,3.96,81.23,4.99,'1111122,1111122,1111122' 
COMPS,ioos:station:USF.COMPS:FHP:1,2016-11-01T00:24:00Z,28.1530,-82.8010,10.0,3.62,83.21,4.31,'1111122,1111122,1111122' 
COMPS,ioos:station:USF.COMPS:FHP:1,2016-11-01T00:30:00Z,28.1530,-82.8010,10.0,3.86,86.02,4.7,'1111122,1111122,1111122' 
COMPS,ioos:station:USF.COMPS:FHP:1,2016-11-01T00:36:00Z,28.1530,-82.8010,10.0,4.1,86.88,5.19,'1111122,1111122,1111122' 
COMPS,ioos:station:USF.COMPS:FHP:1,2016-11-01T00:42:00Z,28.1530,-82.8010,10.0,4.35,87.75,5.39,'1111122,1111122,1111122' 
COMPS,ioos:station:USF.COMPS:FHP:1,2016-11-01T00:48:00Z,28.1530,-82.8010,10.0,4.14,89.01,5.19,'1111122,1111122,1111122' 
COMPS,ioos:station:USF.COMPS:FHP:1,2016-11-01T00:54:00Z,28.1530,-82.8010,10.0,4.0,86.14,5.39,'1111122,1111122,1111122' 
COMPS,ioos:station:USF.COMPS:FHP:1,2016-11-01T01:00:00Z,28.1530,-82.8010,10.0,3.71,87.72,4.6,'1111122,1111122,1111122' 
COMPS,ioos:station:USF.COMPS:FHP:1,2016-11-01T01:06:00Z,28.1530,-82.8010,10.0,3.8,87.62,4.5,'1111122,1111122,1111122' 
COMPS,ioos:station:USF.COMPS:FHP:1,2016-11-01T01:12:00Z,28.1530,-82.8010,10.0,4.33,93.22,5.19,'1111122,1111122,1111122' 
COMPS,ioos:station:USF.COMPS:FHP:1,2016-11-01T01:18:00Z,28.1530,-82.8010,10.0,4.23,90.3,5.29,'1111122,1111122,1111122' 
COMPS,ioos:station:USF.COMPS:FHP:1,2016-11-01T01:24:00Z,28.1530,-82.8010,10.0,4.38,94.76,5.58,'1111122,1111122,1111122' 
COMPS,ioos:station:USF.COMPS:FHP:1,2016-11-01T01:30:00Z,28.1530,-82.8010,10.0,4.29,92.65,5.68,'1111122,1111122,1111122' 
COMPS,ioos:station:USF.COMPS:FHP:1,2016-11-01T01:36:00Z,28.1530,-82.8010,10.0,4.35,86.42,5.48,'1111122,1111122,1111122' 
COMPS,ioos:station:USF.COMPS:FHP:1,2016-11-01T01:42:00Z,28.1530,-82.8010,10.0,4.57,95.52,5.58,'1111122,1111122,1111122' 
COMPS,ioos:station:USF.COMPS:FHP:1,2016-11-01T01:48:00Z,28.1530,-82.8010,10.0,3.84,96.72,4.8,'1111122,1111122,1111122' 
COMPS,ioos:station:USF.COMPS:FHP:1,2016-11-01T01:54:00Z,28.1530,-82.8010,10.0,3.62,98.32,5.39,'1111122,1111122,1111122' 
COMPS,ioos:station:USF.COMPS:FHP:1,2016-11-01T02:00:00Z,28.1530,-82.8010,10.0,3.8,95.19,5.19,'1111122,1111122,1111122' 
COMPS,ioos:station:USF.COMPS:FHP:1,2016-11-01T02:06:00Z,28.1530,-82.8010,10.0,3.91,94.56,5.78,'1111122,1111122,1111122' 
COMPS,ioos:station:USF.COMPS:FHP:1,2016-11-01T02:12:00Z,28.1530,-82.8010,10.0,4.46,96.45,5.68,'1111122,1111122,1111122' 
COMPS,ioos:station:USF.COMPS:FHP:1,2016-11-01T02:18:00Z,28.1530,-82.8010,10.0,4.23,99.82,5.58,'1111122,1111122,1111122' 
COMPS,ioos:station:USF.COMPS:FHP:1,2016-11-01T02:24:00Z,28.1530,-82.8010,10.0,4.51,98.79,6.37,'1111122,1111122,1111122' 
COMPS,ioos:station:USF.COMPS:FHP:1,2016-11-01T02:30:00Z,28.1530,-82.8010,10.0,4.44,99.18,5.78,'1111122,1111122,1111122' 
COMPS,ioos:station:USF.COMPS:FHP:1,2016-11-01T02:36:00Z,28.1530,-82.8010,10.0,4.92,96.09,6.95,'1111122,1111122,1111122' 
COMPS,ioos:station:USF.COMPS:FHP:1,2016-11-01T02:42:00Z,28.1530,-82.8010,10.0,4.71,96.64,5.87,'1111122,1111122,1111122' 
COMPS,ioos:station:USF.COMPS:FHP:1,2016-11-01T02:48:00Z,28.1530,-82.8010,10.0,4.4,95.17,5.48,'1111122,1111122,1111122' 
COMPS,ioos:station:USF.COMPS:FHP:1,2016-11-01T02:54:00Z,28.1530,-82.8010,10.0,4.56,98.13,6.07,'1111122,1111122,1111122' 
COMPS,ioos:station:USF.COMPS:FHP:1,2016-11-01T03:00:00Z,28.1530,-82.8010,10.0,5.02,94.36,6.85,'1111122,1111122,1111122' 
COMPS,ioos:station:USF.COMPS:FHP:1,2016-11-01T03:06:00Z,28.1530,-82.8010,10.0,4.41,93.57,5.78,'1111122,1111122,1111122' 
COMPS,ioos:station:USF.COMPS:FHP:1,2016-11-01T03:12:00Z,28.1530,-82.8010,10.0,4.77,91.47,6.07,'1111122,1111122,1111122' 
COMPS,ioos:station:USF.COMPS:FHP:1,2016-11-01T03:18:00Z,28.1530,-82.8010,10.0,4.3,88.3,6.17,'1111122,1111122,1111122' 
COMPS,ioos:station:USF.COMPS:FHP:1,2016-11-01T03:24:00Z,28.1530,-82.8010,10.0,4.26,88.87,5.29,'1111122,1111122,1111122' 
COMPS,ioos:station:USF.COMPS:FHP:1,2016-11-01T03:30:00Z,28.1530,-82.8010,10.0,4.05,90.79,5.58,'1111122,1111122,1111122' 
COMPS,ioos:station:USF.COMPS:FHP:1,2016-11-01T03:36:00Z,28.1530,-82.8010,10.0,3.72,91.46,4.7,'1111122,1111122,1111122' 
COMPS,ioos:station:USF.COMPS:FHP:1,2016-11-01T03:42:00Z,28.1530,-82.8010,10.0,3.17,92.45,4.11,'1111122,1111122,1111122' 
COMPS,ioos:station:USF.COMPS:FHP:1,2016-11-01T03:48:00Z,28.1530,-82.8010,10.0,2.91,91.31,4.01,'1111122,1111122,1111122' 
COMPS,ioos:station:USF.COMPS:FHP:1,2016-11-01T03:54:00Z,28.1530,-82.8010,10.0,2.77,90.41,3.23,'1111122,1111122,1111122' 
COMPS,ioos:station:USF.COMPS:FHP:1,2016-11-01T04:00:00Z,28.1530,-82.8010,10.0,2.51,88.46,3.13,'1111122,1111122,1111122' 
COMPS,ioos:station:USF.COMPS:FHP:1,2016-11-01T04:06:00Z,28.1530,-82.8010,10.0,2.41,88.88,3.13,'1111122,1111122,1111122' 
COMPS,ioos:station:USF.COMPS:FHP:1,2016-11-01T04:12:00Z,28.1530,-82.8010,10.0,2.71,92.3,3.23,'1111122,1111122,1111122' 
COMPS,ioos:station:USF.COMPS:FHP:1,2016-11-01T04:18:00Z,28.1530,-82.8010,10.0,2.82,90.97,3.52,'1111122,1111122,1111122' 
COMPS,ioos:station:USF.COMPS:FHP:1,2016-11-01T04:24:00Z,28.1530,-82.8010,10.0,2.95,89.3,3.52,'1111122,1111122,1111122' 
COMPS,ioos:station:USF.COMPS:FHP:1,2016-11-01T04:30:00Z,28.1530,-82.8010,10.0,2.89,89.3,3.43,'1111122,1111122,1111122' 
COMPS,ioos:station:USF.COMPS:FHP:1,2016-11-01T04:36:00Z,28.1530,-82.8010,10.0,2.81,88.38,3.82,'1111122,1111122,1111122' 
COMPS,ioos:station:USF.COMPS:FHP:1,2016-11-01T04:42:00Z,28.1530,-82.8010,10.0,2.5,90.47,2.94,'1111122,1111122,1111122' 
COMPS,ioos:station:USF.COMPS:FHP:1,2016-11-01T04:48:00Z,28.1530,-82.8010,10.0,2.61,89.74,3.03,'1111122,1111122,1111122' 
COMPS,ioos:station:USF.COMPS:FHP:1,2016-11-01T04:54:00Z,28.1530,-82.8010,10.0,2.3,90.44,2.84,'1111122,1111122,1111122' 
COMPS,ioos:station:USF.COMPS:FHP:1,2016-11-01T05:00:00Z,28.1530,-82.8010,10.0,2.31,92.68,3.33,'1111122,1111122,1111122' 
COMPS,ioos:station:USF.COMPS:FHP:1,2016-11-01T05:06:00Z,28.1530,-82.8010,10.0,2.35,91.0,3.13,'1111122,1111122,1111122' 
COMPS,ioos:station:USF.COMPS:FHP:1,2016-11-01T05:12:00Z,28.1530,-82.8010,10.0,2.35,91.13,2.74,'1111122,1111122,1111122' 
COMPS,ioos:station:USF.COMPS:FHP:1,2016-11-01T05:18:00Z,28.1530,-82.8010,10.0,2.48,90.12,2.84,'1111122,1111122,1111122' 
COMPS,ioos:station:USF.COMPS:FHP:1,2016-11-01T05:24:00Z,28.1530,-82.8010,10.0,2.46,87.57,3.03,'1111122,1111122,1111122' 
COMPS,ioos:station:USF.COMPS:FHP:1,2016-11-01T05:30:00Z,28.1530,-82.8010,10.0,2.19,88.59,2.94,'1111122,1111122,1111122' 
COMPS,ioos:station:USF.COMPS:FHP:1,2016-11-01T05:36:00Z,28.1530,-82.8010,10.0,2.18,87.25,2.45,'1111122,1111122,1111122' 
COMPS,ioos:station:USF.COMPS:FHP:1,2016-11-01T05:42:00Z,28.1530,-82.8010,10.0,2.27,84.31,2.64,'1111122,1111122,1111122' 
COMPS,ioos:station:USF.COMPS:FHP:1,2016-11-01T05:48:00Z,28.1530,-82.8010,10.0,2.43,83.43,2.94,'1111122,1111122,1111122' 
COMPS,ioos:station:USF.COMPS:FHP:1,2016-11-01T05:54:00Z,28.1530,-82.8010,10.0,2.44,82.66,2.84,'1111122,1111122,1111122' 
COMPS,ioos:station:USF.COMPS:FHP:1,2016-11-01T06:00:00Z,28.1530,-82.8010,10.0,2.44,80.44,3.03,'1111122,1111122,1111122' 
COMPS,ioos:station:USF.COMPS:FHP:1,2016-11-01T06:06:00Z,28.1530,-82.8010,10.0,2.33,78.46,2.94,'1111122,1111122,1111122' 
COMPS,ioos:station:USF.COMPS:FHP:1,2016-11-01T06:12:00Z,28.1530,-82.8010,10.0,2.53,70.96,2.94,'1111122,1111122,1111122' 
COMPS,ioos:station:USF.COMPS:FHP:1,2016-11-01T06:18:00Z,28.1530,-82.8010,10.0,2.89,67.58,3.33,'1111122,1111122,1111122' 
COMPS,ioos:station:USF.COMPS:FHP:1,2016-11-01T06:24:00Z,28.1530,-82.8010,10.0,3.02,66.48,3.52,'1111122,1111122,1111122' 
COMPS,ioos:station:USF.COMPS:FHP:1,2016-11-01T06:30:00Z,28.1530,-82.8010,10.0,2.97,65.87,3.43,'1111122,1111122,1111122' 
COMPS,ioos:station:USF.COMPS:FHP:1,2016-11-01T06:36:00Z,28.1530,-82.8010,10.0,3.08,61.25,3.52,'1111122,1111122,1111122' 
COMPS,ioos:station:USF.COMPS:FHP:1,2016-11-01T06:42:00Z,28.1530,-82.8010,10.0,3.0,66.98,3.52,'1111122,1111122,1111122' 
COMPS,ioos:station:USF.COMPS:FHP:1,2016-11-01T06:48:00Z,28.1530,-82.8010,10.0,3.17,68.6,3.82,'1111122,1111122,1111122' 
COMPS,ioos:station:USF.COMPS:FHP:1,2016-11-01T06:54:00Z,28.1530,-82.8010,10.0,3.08,66.91,3.52,'1111122,1111122,1111122' 
COMPS,ioos:station:USF.COMPS:FHP:1,2016-11-01T07:00:00Z,28.1530,-82.8010,10.0,3.41,66.77,3.82,'1111122,1111122,1111122' 
COMPS,ioos:station:USF.COMPS:FHP:1,2016-11-01T07:06:00Z,28.1530,-82.8010,10.0,3.37,65.45,3.92,'1111122,1111122,1111122' 
COMPS,ioos:station:USF.COMPS:FHP:1,2016-11-01T07:12:00Z,28.1530,-82.8010,10.0,3.6,66.48,4.41,'1111122,1111122,1111122' 
COMPS,ioos:station:USF.COMPS:FHP:1,2016-11-01T07:18:00Z,28.1530,-82.8010,10.0,3.56,67.92,4.01,'1111122,1111122,1111122' 
COMPS,ioos:station:USF.COMPS:FHP:1,2016-11-01T07:24:00Z,28.1530,-82.8010,10.0,3.37,69.16,3.92,'1111122,1111122,1111122' 
COMPS,ioos:station:USF.COMPS:FHP:1,2016-11-01T07:30:00Z,28.1530,-82.8010,10.0,3.44,69.15,4.41,'1111122,1111122,1111122' 
COMPS,ioos:station:USF.COMPS:FHP:1,2016-11-01T07:36:00Z,28.1530,-82.8010,10.0,3.4,71.89,4.11,'1111122,1111122,1111122' 
COMPS,ioos:station:USF.COMPS:FHP:1,2016-11-01T07:42:00Z,28.1530,-82.8010,10.0,3.51,70.94,4.21,'1111122,1111122,1111122' 
COMPS,ioos:station:USF.COMPS:FHP:1,2016-11-01T07:48:00Z,28.1530,-82.8010,10.0,3.3,70.42,4.01,'1111122,1111122,1111122' 
COMPS,ioos:station:USF.COMPS:FHP:1,2016-11-01T07:54:00Z,28.1530,-82.8010,10.0,3.64,69.21,4.7,'1111122,1111122,1111122' 
COMPS,ioos:station:USF.COMPS:FHP:1,2016-11-01T08:00:00Z,28.1530,-82.8010,10.0,3.5,68.07,4.11,'1111122,1111122,1111122' 
COMPS,ioos:station:USF.COMPS:FHP:1,2016-11-01T08:06:00Z,28.1530,-82.8010,10.0,3.38,68.15,4.31,'1111122,1111122,1111122' 
COMPS,ioos:station:USF.COMPS:FHP:1,2016-11-01T08:12:00Z,28.1530,-82.8010,10.0,3.59,69.74,4.41,'1111122,1111122,1111122' 
COMPS,ioos:station:USF.COMPS:FHP:1,2016-11-01T08:18:00Z,28.1530,-82.8010,10.0,3.77,67.63,4.9,'1111122,1111122,1111122' 
COMPS,ioos:station:USF.COMPS:FHP:1,2016-11-01T08:24:00Z,28.1530,-82.8010,10.0,3.47,66.46,3.92,'1111122,1111122,1111122' 
COMPS,ioos:station:USF.COMPS:FHP:1,2016-11-01T08:30:00Z,28.1530,-82.8010,10.0,3.48,70.37,4.21,'1111122,1111122,1111122' 
COMPS,ioos:station:USF.COMPS:FHP:1,2016-11-01T08:36:00Z,28.1530,-82.8010,10.0,3.11,70.21,3.92,'1111122,1111122,1111122' 
COMPS,ioos:station:USF.COMPS:FHP:1,2016-11-01T08:42:00Z,28.1530,-82.8010,10.0,3.22,68.08,3.72,'1111122,1111122,1111122' 
COMPS,ioos:station:USF.COMPS:FHP:1,2016-11-01T08:48:00Z,28.1530,-82.8010,10.0,3.16,66.38,3.62,'1111122,1111122,1111122' 
COMPS,ioos:station:USF.COMPS:FHP:1,2016-11-01T08:54:00Z,28.1530,-82.8010,10.0,3.17,65.43,3.92,'1111122,1111122,1111122' 
COMPS,ioos:station:USF.COMPS:FHP:1,2016-11-01T09:00:00Z,28.1530,-82.8010,10.0,3.21,67.91,3.72,'1111122,1111122,1111122' 
COMPS,ioos:station:USF.COMPS:FHP:1,2016-11-01T09:06:00Z,28.1530,-82.8010,10.0,3.17,68.84,3.82,'1111122,1111122,1111122' 
COMPS,ioos:station:USF.COMPS:FHP:1,2016-11-01T09:12:00Z,28.1530,-82.8010,10.0,3.3,68.85,3.82,'1111122,1111122,1111122' 
COMPS,ioos:station:USF.COMPS:FHP:1,2016-11-01T09:18:00Z,28.1530,-82.8010,10.0,3.36,69.49,4.01,'1111122,1111122,1111122' 
COMPS,ioos:station:USF.COMPS:FHP:1,2016-11-01T09:24:00Z,28.1530,-82.8010,10.0,3.38,76.79,3.92,'1111122,1111122,1111122' 
COMPS,ioos:station:USF.COMPS:FHP:1,2016-11-01T09:30:00Z,28.1530,-82.8010,10.0,3.52,75.97,4.41,'1111122,1111122,1111122' 
COMPS,ioos:station:USF.COMPS:FHP:1,2016-11-01T09:36:00Z,28.1530,-82.8010,10.0,3.43,73.52,4.01,'1111122,1111122,1111122' 
COMPS,ioos:station:USF.COMPS:FHP:1,2016-11-01T09:42:00Z,28.1530,-82.8010,10.0,3.5,75.61,4.11,'1111122,1111122,1111122' 
COMPS,ioos:station:USF.COMPS:FHP:1,2016-11-01T09:48:00Z,28.1530,-82.8010,10.0,3.59,73.49,4.11,'1111122,1111122,1111122' 
COMPS,ioos:station:USF.COMPS:FHP:1,2016-11-01T09:54:00Z,28.1530,-82.8010,10.0,3.5,72.8,4.11,'1111122,1111122,1111122' 
COMPS,ioos:station:USF.COMPS:FHP:1,2016-11-01T10:00:00Z,28.1530,-82.8010,10.0,3.36,74.66,4.31,'1111122,1111122,1111122' 
COMPS,ioos:station:USF.COMPS:FHP:1,2016-11-01T10:06:00Z,28.1530,-82.8010,10.0,3.76,73.4,4.41,'1111122,1111122,1111122' 
COMPS,ioos:station:USF.COMPS:FHP:1,2016-11-01T10:12:00Z,28.1530,-82.8010,10.0,3.72,71.0,4.41,'1111122,1111122,1111122' 
COMPS,ioos:station:USF.COMPS:FHP:1,2016-11-01T10:18:00Z,28.1530,-82.8010,10.0,3.43,69.2,4.21,'1111122,1111122,1111122' 
COMPS,ioos:station:USF.COMPS:FHP:1,2016-11-01T10:24:00Z,28.1530,-82.8010,10.0,3.84,69.06,4.5,'1111122,1111122,1111122' 
COMPS,ioos:station:USF.COMPS:FHP:1,2016-11-01T10:30:00Z,28.1530,-82.8010,10.0,3.92,68.56,4.6,'1111122,1111122,1111122' 
COMPS,ioos:station:USF.COMPS:FHP:1,2016-11-01T10:36:00Z,28.1530,-82.8010,10.0,3.88,70.29,4.8,'1111122,1111122,1111122' 
COMPS,ioos:station:USF.COMPS:FHP:1,2016-11-01T10:42:00Z,28.1530,-82.8010,10.0,3.89,71.67,4.31,'1111122,1111122,1111122' 
COMPS,ioos:station:USF.COMPS:FHP:1,2016-11-01T10:48:00Z,28.1530,-82.8010,10.0,3.75,73.52,4.41,'1111122,1111122,1111122' 
COMPS,ioos:station:USF.COMPS:FHP:1,2016-11-01T10:54:00Z,28.1530,-82.8010,10.0,3.42,68.38,4.01,'1111122,1111122,1111122' 
COMPS,ioos:station:USF.COMPS:FHP:1,2016-11-01T11:00:00Z,28.1530,-82.8010,10.0,3.52,65.07,4.11,'1111122,1111122,1111122' 
COMPS,ioos:station:USF.COMPS:FHP:1,2016-11-01T11:06:00Z,28.1530,-82.8010,10.0,3.26,64.0,3.82,'1111122,1111122,1111122' 
COMPS,ioos:station:USF.COMPS:FHP:1,2016-11-01T11:12:00Z,28.1530,-82.8010,10.0,3.17,63.93,3.62,'1111122,1111122,1111122' 
COMPS,ioos:station:USF.COMPS:FHP:1,2016-11-01T11:18:00Z,28.1530,-82.8010,10.0,3.1,63.95,3.62,'1111122,1111122,1111122' 
COMPS,ioos:station:USF.COMPS:FHP:1,2016-11-01T11:24:00Z,28.1530,-82.8010,10.0,3.09,64.25,3.72,'1111122,1111122,1111122' 
COMPS,ioos:station:USF.COMPS:FHP:1,2016-11-01T11:30:00Z,28.1530,-82.8010,10.0,3.28,61.28,4.01,'1111122,1111122,1111122' 
COMPS,ioos:station:USF.COMPS:FHP:1,2016-11-01T11:36:00Z,28.1530,-82.8010,10.0,3.49,61.39,4.01,'1111122,1111122,1111122' 
COMPS,ioos:station:USF.COMPS:FHP:1,2016-11-01T11:42:00Z,28.1530,-82.8010,10.0,3.51,65.35,4.11,'1111122,1111122,1111122' 
COMPS,ioos:station:USF.COMPS:FHP:1,2016-11-01T11:48:00Z,28.1530,-82.8010,10.0,3.5,64.75,4.21,'1111122,1111122,1111122' 
COMPS,ioos:station:USF.COMPS:FHP:1,2016-11-01T11:54:00Z,28.1530,-82.8010,10.0,3.56,63.8,4.01,'1111122,1111122,1111122' 
COMPS,ioos:station:USF.COMPS:FHP:1,2016-11-01T12:00:00Z,28.1530,-82.8010,10.0,3.49,64.36,4.01,'1111122,1111122,1111122' 
COMPS,ioos:station:USF.COMPS:FHP:1,2016-11-01T12:06:00Z,28.1530,-82.8010,10.0,3.47,66.46,3.92,'1111122,1111122,1111122' 
COMPS,ioos:station:USF.COMPS:FHP:1,2016-11-01T12:12:00Z,28.1530,-82.8010,10.0,3.38,72.23,4.11,'1111122,1111122,1111122' 
COMPS,ioos:station:USF.COMPS:FHP:1,2016-11-01T12:18:00Z,28.1530,-82.8010,10.0,3.22,71.99,3.72,'1111122,1111122,1111122' 
COMPS,ioos:station:USF.COMPS:FHP:1,2016-11-01T12:24:00Z,28.1530,-82.8010,10.0,3.53,72.39,4.7,'1111122,1111122,1111122' 
COMPS,ioos:station:USF.COMPS:FHP:1,2016-11-01T12:30:00Z,28.1530,-82.8010,10.0,3.98,74.38,4.99,'1111122,1111122,1111122' 
COMPS,ioos:station:USF.COMPS:FHP:1,2016-11-01T12:36:00Z,28.1530,-82.8010,10.0,4.24,73.66,4.9,'1111122,1111122,1111122' 
COMPS,ioos:station:USF.COMPS:FHP:1,2016-11-01T12:42:00Z,28.1530,-82.8010,10.0,4.1,70.34,4.6,'1111122,1111122,1111122' 
COMPS,ioos:station:USF.COMPS:FHP:1,2016-11-01T12:48:00Z,28.1530,-82.8010,10.0,3.86,69.34,4.41,'1111122,1111122,1111122' 
COMPS,ioos:station:USF.COMPS:FHP:1,2016-11-01T12:54:00Z,28.1530,-82.8010,10.0,3.68,66.98,4.41,'1111122,1111122,1111122' 
COMPS,ioos:station:USF.COMPS:FHP:1,2016-11-01T13:00:00Z,28.1530,-82.8010,10.0,3.67,65.78,4.7,'1111122,1111122,1111122' 
COMPS,ioos:station:USF.COMPS:FHP:1,2016-11-01T13:06:00Z,28.1530,-82.8010,10.0,3.51,68.55,4.41,'1111122,1111122,1111122' 
COMPS,ioos:station:USF.COMPS:FHP:1,2016-11-01T13:12:00Z,28.1530,-82.8010,10.0,3.22,68.38,4.21,'1111122,1111122,1111122' 
COMPS,ioos:station:USF.COMPS:FHP:1,2016-11-01T13:18:00Z,28.1530,-82.8010,10.0,3.19,68.81,4.7,'1111122,1111122,1111122' 
COMPS,ioos:station:USF.COMPS:FHP:1,2016-11-01T13:24:00Z,28.1530,-82.8010,10.0,3.58,68.49,4.5,'1111122,1111122,1111122' 
COMPS,ioos:station:USF.COMPS:FHP:1,2016-11-01T13:30:00Z,28.1530,-82.8010,10.0,3.65,73.56,4.5,'1111122,1111122,1111122' 
COMPS,ioos:station:USF.COMPS:FHP:1,2016-11-01T13:36:00Z,28.1530,-82.8010,10.0,3.71,70.19,4.9,'1111122,1111122,1111122' 
COMPS,ioos:station:USF.COMPS:FHP:1,2016-11-01T13:42:00Z,28.1530,-82.8010,10.0,3.99,72.81,5.19,'1111122,1111122,1111122' 
COMPS,ioos:station:USF.COMPS:FHP:1,2016-11-01T13:48:00Z,28.1530,-82.8010,10.0,3.6,73.09,4.9,'1111122,1111122,1111122' 
COMPS,ioos:station:USF.COMPS:FHP:1,2016-11-01T13:54:00Z,28.1530,-82.8010,10.0,3.36,75.44,4.7,'1111122,1111122,1111122' 
COMPS,ioos:station:USF.COMPS:FHP:1,2016-11-01T14:00:00Z,28.1530,-82.8010,10.0,3.96,74.41,4.9,'1111122,1111122,1111122' 
COMPS,ioos:station:USF.COMPS:FHP:1,2016-11-01T14:06:00Z,28.1530,-82.8010,10.0,4.09,86.47,6.07,'1111122,1111122,1111122' 
COMPS,ioos:station:USF.COMPS:FHP:1,2016-11-01T14:12:00Z,28.1530,-82.8010,10.0,3.48,82.85,5.78,'1111122,1111122,1111122' 
COMPS,ioos:station:USF.COMPS:FHP:1,2016-11-01T14:18:00Z,28.1530,-82.8010,10.0,3.55,86.81,5.29,'1111122,1111122,1111122' 
COMPS,ioos:station:USF.COMPS:FHP:1,2016-11-01T14:24:00Z,28.1530,-82.8010,10.0,3.58,88.79,4.41,'1111122,1111122,1111122' 
COMPS,ioos:station:USF.COMPS:FHP:1,2016-11-01T14:30:00Z,28.1530,-82.8010,10.0,4.52,96.75,5.97,'1111122,1111122,1111122' 
COMPS,ioos:station:USF.COMPS:FHP:1,2016-11-01T14:36:00Z,28.1530,-82.8010,10.0,5.44,85.34,7.54,'1111122,1111122,1111122' 
COMPS,ioos:station:USF.COMPS:FHP:1,2016-11-01T14:42:00Z,28.1530,-82.8010,10.0,4.8,84.96,7.25,'1111122,1111122,1111122' 
COMPS,ioos:station:USF.COMPS:FHP:1,2016-11-01T14:48:00Z,28.1530,-82.8010,10.0,4.48,96.56,7.64,'1111122,1111122,1111122' 
COMPS,ioos:station:USF.COMPS:FHP:1,2016-11-01T14:54:00Z,28.1530,-82.8010,10.0,4.53,93.84,7.05,'1111122,1111122,1111122' 
COMPS,ioos:station:USF.COMPS:FHP:1,2016-11-01T15:00:00Z,28.1530,-82.8010,10.0,5.82,90.48,8.03,'1111122,1111122,1111122' 
COMPS,ioos:station:USF.COMPS:FHP:1,2016-11-01T15:06:00Z,28.1530,-82.8010,10.0,6.29,91.64,8.03,'1111122,1111122,1111122' 
COMPS,ioos:station:USF.COMPS:FHP:1,2016-11-01T15:12:00Z,28.1530,-82.8010,10.0,5.82,88.15,8.03,'1111122,1111122,1111122' 
COMPS,ioos:station:USF.COMPS:FHP:1,2016-11-01T15:18:00Z,28.1530,-82.8010,10.0,5.17,89.23,7.44,'1111122,1111122,1111122' 
COMPS,ioos:station:USF.COMPS:FHP:1,2016-11-01T15:24:00Z,28.1530,-82.8010,10.0,6.65,97.39,9.21,'1111122,1111122,1111122' 
COMPS,ioos:station:USF.COMPS:FHP:1,2016-11-01T15:30:00Z,28.1530,-82.8010,10.0,6.39,104.19,9.8,'1111122,1111122,1111122' 
COMPS,ioos:station:USF.COMPS:FHP:1,2016-11-01T15:36:00Z,28.1530,-82.8010,10.0,6.68,106.64,9.89,'1111122,1111122,1111122' 
COMPS,ioos:station:USF.COMPS:FHP:1,2016-11-01T15:42:00Z,28.1530,-82.8010,10.0,7.12,96.33,8.82,'1111122,1111122,1111122' 
COMPS,ioos:station:USF.COMPS:FHP:1,2016-11-01T15:48:00Z,28.1530,-82.8010,10.0,7.31,93.37,10.38,'1111122,1111122,1111122' 
COMPS,ioos:station:USF.COMPS:FHP:1,2016-11-01T15:54:00Z,28.1530,-82.8010,10.0,7.93,87.13,11.07,'1111122,1111122,1111122' 
COMPS,ioos:station:USF.COMPS:FHP:1,2016-11-01T16:00:00Z,28.1530,-82.8010,10.0,7.7,90.86,11.66,'1111122,1111122,1111122' 
COMPS,ioos:station:USF.COMPS:FHP:1,2016-11-01T16:06:00Z,28.1530,-82.8010,10.0,7.69,95.45,10.29,'1111122,1111122,1111122' 
COMPS,ioos:station:USF.COMPS:FHP:1,2016-11-01T16:12:00Z,28.1530,-82.8010,10.0,8.97,87.53,11.76,'1111122,1111122,1111122' 
COMPS,ioos:station:USF.COMPS:FHP:1,2016-11-01T16:18:00Z,28.1530,-82.8010,10.0,8.19,100.01,11.66,'1111122,1111122,1111122' 
COMPS,ioos:station:USF.COMPS:FHP:1,2016-11-01T16:24:00Z,28.1530,-82.8010,10.0,8.31,101.36,10.19,'1111122,1111122,1111122' 
COMPS,ioos:station:USF.COMPS:FHP:1,2016-11-01T16:30:00Z,28.1530,-82.8010,10.0,7.72,102.1,10.58,'1111122,1111122,1111122' 
COMPS,ioos:station:USF.COMPS:FHP:1,2016-11-01T16:36:00Z,28.1530,-82.8010,10.0,7.72,90.05,10.29,'1111122,1111122,1111122' 
COMPS,ioos:station:USF.COMPS:FHP:1,2016-11-01T16:42:00Z,28.1530,-82.8010,10.0,7.21,94.53,9.8,'1111122,1111122,1111122' 
COMPS,ioos:station:USF.COMPS:FHP:1,2016-11-01T16:48:00Z,28.1530,-82.8010,10.0,7.17,101.13,11.46,'1111122,1111122,1111122' 
COMPS,ioos:station:USF.COMPS:FHP:1,2016-11-01T16:54:00Z,28.1530,-82.8010,10.0,8.52,96.17,10.48,'1111122,1111122,1111122' 
COMPS,ioos:station:USF.COMPS:FHP:1,2016-11-01T17:00:00Z,28.1530,-82.8010,10.0,8.61,103.75,11.36,'1111122,1111122,1111122' 
COMPS,ioos:station:USF.COMPS:FHP:1,2016-11-01T17:06:00Z,28.1530,-82.8010,10.0,8.62,99.21,11.17,'1111122,1111122,1111122' 
COMPS,ioos:station:USF.COMPS:FHP:1,2016-11-01T17:12:00Z,28.1530,-82.8010,10.0,7.45,104.84,9.3,'1111122,1111122,1111122' 
COMPS,ioos:station:USF.COMPS:FHP:1,2016-11-01T17:18:00Z,28.1530,-82.8010,10.0,7.25,91.31,10.19,'1111122,1111122,1111122' 
COMPS,ioos:station:USF.COMPS:FHP:1,2016-11-01T17:24:00Z,28.1530,-82.8010,10.0,7.22,84.72,9.4,'1111122,1111122,1111122' 
COMPS,ioos:station:USF.COMPS:FHP:1,2016-11-01T17:30:00Z,28.1530,-82.8010,10.0,7.15,105.51,10.38,'1111122,1111122,1111122' 
COMPS,ioos:station:USF.COMPS:FHP:1,2016-11-01T17:36:00Z,28.1530,-82.8010,10.0,7.08,111.7,9.21,'1111122,1111122,1111122' 
COMPS,ioos:station:USF.COMPS:FHP:1,2016-11-01T17:42:00Z,28.1530,-82.8010,10.0,6.93,107.17,9.8,'1111122,1111122,1111122' 
COMPS,ioos:station:USF.COMPS:FHP:1,2016-11-01T17:48:00Z,28.1530,-82.8010,10.0,6.82,89.73,9.3,'1111122,1111122,1111122' 
COMPS,ioos:station:USF.COMPS:FHP:1,2016-11-01T17:54:00Z,28.1530,-82.8010,10.0,6.37,88.4,9.8,'1111122,1111122,1111122' 
COMPS,ioos:station:USF.COMPS:FHP:1,2016-11-01T18:00:00Z,28.1530,-82.8010,10.0,7.67,107.45,11.07,'1111122,1111122,1111122' 
COMPS,ioos:station:USF.COMPS:FHP:1,2016-11-01T18:06:00Z,28.1530,-82.8010,10.0,8.17,109.83,11.76,'1111122,1111122,1111122' 
COMPS,ioos:station:USF.COMPS:FHP:1,2016-11-01T18:12:00Z,28.1530,-82.8010,10.0,7.58,122.42,10.29,'1111122,1111122,1111122' 
COMPS,ioos:station:USF.COMPS:FHP:1,2016-11-01T18:18:00Z,28.1530,-82.8010,10.0,7.14,110.59,9.5,'1111122,1111122,1111122' 
COMPS,ioos:station:USF.COMPS:FHP:1,2016-11-01T18:24:00Z,28.1530,-82.8010,10.0,7.55,110.42,9.7,'1111122,1111122,1111122' 
COMPS,ioos:station:USF.COMPS:FHP:1,2016-11-01T18:30:00Z,28.1530,-82.8010,10.0,7.37,118.56,9.8,'1111122,1111122,1111122' 
COMPS,ioos:station:USF.COMPS:FHP:1,2016-11-01T18:36:00Z,28.1530,-82.8010,10.0,6.94,118.29,9.21,'1111122,1111122,1111122' 
COMPS,ioos:station:USF.COMPS:FHP:1,2016-11-01T18:42:00Z,28.1530,-82.8010,10.0,6.84,108.48,9.99,'1111122,1111122,1111122' 
COMPS,ioos:station:USF.COMPS:FHP:1,2016-11-01T18:48:00Z,28.1530,-82.8010,10.0,7.67,84.02,10.09,'1111122,1111122,1111122' 
COMPS,ioos:station:USF.COMPS:FHP:1,2016-11-01T18:54:00Z,28.1530,-82.8010,10.0,7.71,85.52,10.19,'1111122,1111122,1111122' 
COMPS,ioos:station:USF.COMPS:FHP:1,2016-11-01T19:00:00Z,28.1530,-82.8010,10.0,7.45,93.73,9.6,'1111122,1111122,1111122' 
COMPS,ioos:station:USF.COMPS:FHP:1,2016-11-01T19:06:00Z,28.1530,-82.8010,10.0,6.73,97.13,8.82,'1111122,1111122,1111122' 
COMPS,ioos:station:USF.COMPS:FHP:1,2016-11-01T19:12:00Z,28.1530,-82.8010,10.0,6.65,84.36,10.58,'1111122,1111122,1111122' 
COMPS,ioos:station:USF.COMPS:FHP:1,2016-11-01T19:18:00Z,28.1530,-82.8010,10.0,6.17,91.16,8.72,'1111122,1111122,1111122' 
COMPS,ioos:station:USF.COMPS:FHP:1,2016-11-01T19:24:00Z,28.1530,-82.8010,10.0,7.13,88.07,9.8,'1111122,1111122,1111122' 
COMPS,ioos:station:USF.COMPS:FHP:1,2016-11-01T19:30:00Z,28.1530,-82.8010,10.0,5.74,91.05,7.93,'1111122,1111122,1111122' 
COMPS,ioos:station:USF.COMPS:FHP:1,2016-11-01T19:36:00Z,28.1530,-82.8010,10.0,6.17,97.67,8.03,'1111122,1111122,1111122' 